Regional Weather Roundup
Issued by NWS

Home | Current Version | Previous Version | Text Only | Print | Product List | Glossary Off
Versions: 1 2 3 4 5 6 7 8 9 10 11 12 13 14 15 16 17 18 19 20 21 22 23 24 25 26 27 28 29 30 31 32 33 34 35 36 37 38 39 40 41 42 43 44 45 46 47 48 49 50

000
ASUS43 KDMX 040708
RWRIA

WEATHER ROUNDUP FOR IOWA
NATIONAL WEATHER SERVICE DES MOINES IA
200 AM CDT WED MAY 04 2016

NOTE: "FAIR" INDICATES FEW OR NO CLOUDS BELOW 12,000 FEET WITH NO
SIGNIFICANT WEATHER AND/OR OBSTRUCTIONS TO VISIBILITY.

* - THESE STATIONS ARE NOT NWS STATIONS...THUS NOT UNDER NWS
QUALITY CONTROL.  THEY ALSO DO NOT REPORT WEATHER SUCH
AS PRECIPITATION OR FOG.

IAZ001>003-012>014-020>022-031>034-043>046-040800-
   NORTHWEST IOWA

CITY           SKY/WX    TMP DP  RH WIND       PRES   REMARKS
CARROLL *      PTCLDY    52  37  58 NW16G23   29.84R
CHEROKEE *     CLEAR     46  36  66 N6        29.89R
DENISON *      CLEAR     52  36  54 N10       29.86R
LE MARS *      CLEAR     50  36  57 N9        29.93R
ORANGE CITY *  CLEAR     48  36  61 N8        29.92R
SHELDON *      CLEAR     46  36  66 N10       29.90R
SIOUX CITY     PTCLDY    55  33  43 N13       29.92R
SPENCER        CLEAR     50  33  52 N14       29.89R
STORM LAKE *   CLEAR     50  34  53 N15       29.88R
$$

IAZ055>058-069>071-079>083-090>094-040800-
   SOUTHWEST IOWA

CITY           SKY/WX    TMP DP  RH WIND       PRES   REMARKS
ATLANTIC *     CLEAR     54  41  62 N10       29.85S
AUDUBON *      CLEAR     52  39  62 NW7       29.86S
CLARINDA *       N/A    N/A N/A N/A MISG        N/A
COUNCIL BLFS * CLEAR     57  41  54 N8        29.88R
CRESTON *      CLEAR     52  45  76 NW10      29.83S
HARLAN  *      CLEAR     54  37  54 N13       29.90R
LAMONI         CLOUDY    54  45  71 NW14      29.80S
RED OAK *      CLEAR     57  45  62 NW10G17   29.86R
SHENANDOAH *   CLEAR     59  46  63 NW10      29.87R
$$

IAZ047>049-059>061-072>074-084-040800-
   CENTRAL IOWA

CITY           SKY/WX    TMP DP  RH WIND       PRES   REMARKS
AMES           CLEAR     55  34  45 N18       29.78R
ANKENY *       CLEAR     57  36  44 NW15G22   29.77R
BOONE *        CLEAR     54  34  47 NW15G21   29.78S
CHARITON *     PTCLDY    57  45  62 W14       29.76F
DES MOINES     PTCLDY    59  36  42 NW14      29.78R
GRINNELL*      CLEAR     54  39  58 NW13      29.73R
KNOXVILLE *    PTCLDY    55  45  67 NW13      29.73S
MARSHALLTOWN   CLEAR     52  37  56 NW14      29.74R
NEWTON *       CLEAR     57  37  47 NW18      29.74R
PELLA *        CLEAR     57  43  58 NW13      29.74S
PERRY *          N/A     55  36  47 NW17G24   29.81R
$$

IAZ004>006-015-016-023>025-035-036-040800-
   NORTH CENTRAL IOWA

CITY           SKY/WX    TMP DP  RH WIND       PRES   REMARKS
ALGONA *       CLEAR     52  34  50 N12       29.84R
CLARION *      CLEAR     48  34  57 N9        29.80R
ESTHERVILLE    CLEAR     48  33  56 N15       29.87R
FORT DODGE *   PTCLDY    52  34  50 N8        29.83R
MASON CITY     CLEAR     48  34  58 N13       29.82R
FOREST CITY *  CLEAR     50  32  50 N12       29.82R
WEBSTER CITY * CLEAR     50  36  57 NW15      29.78S
IOWA FALLS *     N/A     52  36  54 N15       29.78R
$$

IAZ007>011-017>019-026>030-037>042-050>054-066-040800-
   NORTHEAST IOWA

CITY           SKY/WX    TMP DP  RH WIND       PRES   REMARKS
CEDAR RAPIDS   CLEAR     50  47  89 E6        29.69R
CHARLES CITY * CLEAR     50  41  71 N10       29.78R
CLINTON *      CLOUDY    48  47  96 CALM      29.70F
DECORAH *      CLEAR     50  45  81 N7        29.75R
DUBUQUE        FOG       43  43 100 NW7       29.70S VSB 1/2
MONTICELLO *   CLEAR     48  46  93 N5        29.70R
OELWEIN *      CLEAR     48  46  93 N9        29.74R
WATERLOO       CLEAR     48  43  82 N9        29.74R
$$

IAZ064-065-067-068-078-040800-
   EAST CENTRAL IOWA

CITY           SKY/WX    TMP DP  RH WIND       PRES   REMARKS
DAVENPORT      CLOUDY    50  47  89 S3        29.68F
IOWA CITY      PTCLDY    54  47  77 E3        29.70R
MT. PLEASANT * MOCLDY    59  46  63 W12G17    29.69F
MUSCATINE *    CLOUDY    54  48  82 E6        29.71F
QUAD CITIES    LGT RAIN  51  47  86 SE9       29.67F
$$

IAZ062-063-075>077-085>089-095>099-040800-
   SOUTHEAST IOWA

CITY           SKY/WX    TMP DP  RH WIND       PRES   REMARKS
BURLINGTON     CLOUDY    57  46  66 W12       29.68F
FAIRFIELD *    CLOUDY    57  45  62 W10       29.69F
FORT MADISON * MOCLDY    57  45  62 SW10      29.70F
KEOKUK *       LGT RAIN  55  46  71 SW12      29.70F
OSKALOOSA *      N/A     54  46  76 W16       29.71S
OTTUMWA        MOCLDY    56  45  66 W15       29.71S
WASHINGTON *   PTCLDY    55  48  76 W15       29.69S
$$

ABBREVIATIONS USED IN REMARKS
   TC - TEMPERATURES IN CELSIUS
  WCI - WIND CHILL INDEX
   HX - HEAT INDEX
  VSB - VISIBILITY
$$





USA.gov is the U.S. government's official web portal to all federal, state and local government web resources and services.